Theta_e
331 331 331 331 333 334 335 337 337 338 339 343 345 346 348 349 350 351 351 352 353 352 353 355 356 354 353 355 356 358 356 355 356 352 353 353 356 355 355 355 355 354 354 356 353 353 355 357 356 357 356 357 360 358 358 360 359 364 362 363 362 363 360
330 331 332 332 333 335 336 337 337 337 340 344 344 346 348 348 349 350 351 352 352 352 352 354 356 355 354 355 357 358 357 358 358 358 356 358 360 356 357 357 355 354 355 358 357 353 355 356 356 356 356 358 360 359 359 360 360 361 361 361 360 360 360
330 331 332 332 334 335 336 337 337 337 341 343 345 346 347 348 349 349 350 351 351 352 352 353 356 355 355 356 357 358 359 359 358 357 355 357 357 356 357 358 356 355 355 358 358 357 357 356 357 356 356 356 359 359 360 360 360 361 360 360 361 361 357
331 331 332 333 335 336 337 338 338 338 341 344 345 347 348 349 349 350 351 351 351 352 351 352 355 355 355 355 358 358 359 359 359 357 357 358 358 356 356 355 356 356 357 357 359 360 361 358 358 356 363 355 357 359 359 360 359 359 359 359 357 358 357
332 332 332 333 334 334 336 337 338 337 339 343 346 348 348 350 350 350 351 352 352 352 353 353 356 355 356 356 359 359 360 358 359 358 357 357 359 357 356 354 355 356 357 358 358 359 358 358 358 357 359 355 356 358 358 359 358 359 357 359 357 358 358
331 332 331 332 332 334 336 337 337 337 338 341 345 347 349 350 350 350 351 352 352 353 354 354 355 355 354 356 359 359 360 359 358 358 357 356 355 356 356 355 355 356 356 358 359 357 357 358 358 359 359 356 358 359 357 358 358 357 356 359 358 358 360
331 333 331 332 332 333 335 336 337 338 339 341 345 348 349 350 349 350 352 352 353 352 353 353 355 355 354 356 357 359 358 358 356 356 355 356 355 355 355 356 359 356 356 357 356 356 357 357 357 359 359 359 359 359 357 357 357 357 356 359 358 356 357
332 332 331 332 333 334 335 335 336 338 340 341 344 347 348 349 350 350 351 352 353 353 352 353 354 354 354 356 356 356 357 358 357 356 355 355 354 354 354 355 356 356 355 356 355 356 355 357 358 359 358 359 358 357 357 357 357 358 357 359 358 357 360
337 334 334 332 333 334 335 335 336 337 339 340 343 346 347 349 349 350 351 353 353 353 352 353 353 354 354 355 353 354 356 357 356 356 354 354 354 353 353 354 355 356 355 354 354 355 353 357 357 358 357 357 357 356 356 356 357 357 357 357 358 358 358
334 336 336 338 333 335 335 335 336 336 338 339 342 344 346 348 349 350 351 353 352 353 353 353 353 353 353 353 352 352 354 355 356 355 354 352 352 353 352 353 354 357 354 354 354 354 354 355 356 358 357 356 356 356 356 356 357 357 357 358 357 357 357
334 338 339 336 337 332 334 334 335 335 338 339 342 343 345 348 349 349 350 352 352 353 353 353 352 352 352 352 352 350 352 353 355 354 354 352 351 352 353 353 353 355 354 353 353 355 354 355 354 356 357 356 355 355 355 355 356 357 357 358 359 358 358
334 337 337 336 337 336 332 333 335 336 337 338 341 342 344 346 348 349 350 351 352 352 352 353 351 351 351 351 351 349 349 350 352 353 353 353 352 352 353 353 352 353 355 353 352 352 354 354 354 355 355 356 355 356 355 356 357 357 357 358 359 359 359
332 335 337 336 336 337 335 332 334 336 338 338 340 341 343 345 347 348 349 350 351 352 352 352 350 350 351 350 350 347 348 349 350 351 352 353 352 352 352 352 352 353 353 354 352 352 352 353 353 356 355 355 355 356 356 357 358 358 357 357 356 357 357
338 339 337 337 338 337 335 334 335 335 337 338 339 341 342 345 346 347 348 348 350 351 351 351 349 349 349 350 348 347 347 348 348 349 349 351 351 351 352 352 350 353 354 354 352 351 352 352 352 354 355 355 355 355 357 356 357 356 357 357 356 356 356
336 336 335 338 337 337 337 337 337 336 335 338 339 341 342 344 345 347 347 348 349 349 350 349 348 348 348 348 347 347 347 347 347 347 347 350 348 347 348 350 349 350 352 352 352 352 351 352 352 355 355 355 356 356 358 359 358 358 357 358 357 357 357
335 335 335 336 335 337 338 339 339 340 340 341 340 341 344 344 345 345 346 347 347 348 349 347 347 346 347 346 346 347 348 348 348 347 346 347 347 346 344 346 348 348 349 350 351 350 351 350 351 353 354 355 355 353 354 357 360 363 367 367 361 357 358
333 333 335 334 334 336 337 339 340 341 341 339 340 342 346 346 347 347 348 348 348 347 348 348 348 346 346 346 346 347 347 348 348 348 348 350 347 345 344 347 348 347 347 348 348 348 349 350 350 350 351 353 354 353 352 349 345 343 334 340 347 362 356
330 331 333 334 335 336 336 338 340 340 340 341 341 340 340 340 344 346 347 348 347 349 349 349 349 349 347 346 347 347 347 347 347 347 348 351 351 352 353 354 353 351 350 350 351 352 351 347 348 348 348 349 348 345 343 339 335 328 332 336 340 351 355
330 332 333 332 333 336 337 337 338 339 341 343 343 340 341 342 341 340 341 343 346 350 349 347 348 348 348 349 349 349 349 347 346 346 350 351 353 354 353 351 350 349 350 350 352 353 349 347 347 346 346 345 343 342 340 334 329 327 330 331 332 335 356
332 333 334 335 335 335 336 336 338 340 341 342 343 344 344 346 344 343 343 344 345 343 343 341 343 344 346 347 347 346 346 348 349 347 348 348 349 349 348 348 347 346 346 348 350 352 352 350 347 345 343 343 342 337 334 330 327 325 327 328 330 333 344
332 331 332 334 335 336 336 335 337 339 340 340 341 341 341 340 343 343 343 344 344 343 343 341 340 340 343 343 344 344 343 340 338 338 339 342 345 345 344 345 343 344 344 345 348 350 350 349 347 345 344 339 335 333 330 327 322 322 324 324 327 331 348
330 331 330 331 332 334 334 335 335 335 336 339 340 340 340 339 341 342 342 344 342 343 343 342 341 342 343 343 344 345 345 343 341 340 339 338 339 342 344 343 342 342 344 344 344 346 349 349 349 345 339 335 333 330 327 325 319 320 320 321 325 343 351
331 331 332 332 334 333 334 334 333 334 334 335 336 337 338 339 341 340 340 340 341 341 341 341 341 342 343 343 345 348 348 346 344 343 342 342 342 342 345 344 343 342 344 342 344 347 348 348 348 345 339 336 333 329 327 327 321 317 316 317 321 340 345
333 333 334 334 334 334 333 333 333 334 334 333 333 334 336 338 339 339 338 337 337 337 337 338 339 342 343 342 345 346 346 345 344 343 342 342 341 344 346 349 348 346 346 342 344 346 346 346 346 345 342 336 332 330 328 326 322 315 314 315 319 337 339
333 334 333 333 332 331 331 331 332 333 333 333 331 332 334 334 334 334 332 333 333 334 334 335 337 339 340 341 344 345 345 344 344 343 342 341 341 343 344 345 344 344 344 344 344 345 345 346 342 341 339 338 337 339 331 329 326 315 315 315 319 333 337
330 331 332 333 333 332 331 332 331 330 330 329 329 332 332 332 332 332 330 330 331 331 332 334 335 337 339 340 341 343 345 345 345 343 342 341 341 342 342 343 342 341 341 342 344 345 344 344 342 339 339 339 337 335 332 330 329 325 315 317 320 330 339
328 329 328 329 330 331 328 327 328 327 328 327 329 330 331 330 329 328 329 329 329 330 332 334 336 336 336 337 338 339 341 342 342 342 342 342 341 342 344 344 342 343 343 343 344 343 342 340 339 337 336 336 336 336 334 332 329 324 314 314 316 322 334
323 323 325 327 328 327 325 326 326 327 327 328 328 330 330 329 328 327 327 327 327 328 331 332 331 330 331 333 334 336 337 338 339 341 341 342 342 341 341 343 344 344 344 344 342 340 338 338 334 332 332 334 336 336 337 337 334 330 319 315 314 315 323
317 318 319 321 323 326 325 323 323 324 325 327 328 327 326 326 326 325 326 325 327 330 331 331 328 327 327 327 328 332 332 333 336 337 339 339 339 337 337 338 339 341 344 342 340 338 337 334 331 329 330 333 334 336 336 334 332 329 325 318 314 313 315
317 318 320 322 323 324 325 322 322 322 324 326 328 328 327 325 324 325 324 323 327 330 332 331 330 329 329 330 325 325 328 332 333 332 333 335 335 335 333 333 335 337 338 340 340 338 337 335 334 333 333 332 333 332 331 331 332 330 327 323 316 313 312
316 317 319 320 321 324 323 321 321 323 324 325 326 326 326 327 327 326 324 326 331 331 328 326 328 329 330 328 326 326 324 326 328 330 329 330 332 333 334 333 333 331 332 332 331 331 331 334 336 333 333 332 329 328 327 325 325 327 330 328 324 316 315
315 316 317 319 320 322 322 322 322 322 322 322 324 325 326 324 324 324 323 327 332 329 326 326 327 328 328 330 331 334 333 334 334 331 329 334 331 334 335 334 332 330 329 329 329 330 330 331 332 334 334 330 329 326 321 319 318 317 318 324 325 324 319
314 314 315 317 320 321 319 320 319 319 318 318 320 322 324 322 323 323 323 324 325 326 324 324 325 326 325 323 324 326 328 330 332 328 327 328 329 327 328 328 327 327 329 327 326 327 329 330 331 331 334 330 324 320 319 316 316 315 314 315 316 316 317
313 314 316 318 320 319 318 318 317 318 318 318 318 320 321 322 322 323 321 321 323 323 324 326 324 321 320 323 327 328 327 329 334 327 322 321 319 318 318 320 321 320 321 321 321 322 323 326 327 327 327 322 319 316 315 314 313 312 312 312 314 314 313
317 317 318 320 320 320 318 318 318 318 319 318 318 319 321 322 322 320 318 322 323 320 323 326 323 325 320 320 321 326 328 324 323 322 319 316 315 312 311 312 315 317 316 318 319 321 322 320 321 322 321 320 317 316 315 315 313 316 309 311 305 310 313
318 318 319 319 320 320 320 321 319 319 318 317 318 319 320 320 322 323 324 322 321 321 324 326 323 320 320 321 322 324 324 323 320 321 320 316 315 314 313 310 301 303 314 314 316 308 308 314 319 319 318 316 315 316 315 313 315 309 299 299 296 296 297
318 318 318 318 318 318 318 319 321 320 319 318 320 321 322 321 321 322 324 323 322 322 321 322 324 322 321 323 323 326 326 322 318 317 317 317 316 316 315 313 312 299 298 305 307 302 299 302 306 310 314 320 315 312 306 308 303 297 297 295 294 294 293
319 319 319 318 318 318 318 318 319 318 319 317 319 319 320 321 320 320 322 322 322 322 321 322 323 320 319 318 322 329 326 320 321 321 319 317 317 316 315 314 312 312 301 296 300 300 296 297 299 301 304 308 313 316 310 303 299 296 295 294 294 293 292
Wind_Speed
8 11 8 10 11 13 14 14 14 13 13 13 13 14 13 12 11 10 10 10 10 9 8 7 7 6 7 6 5 5 5 6 5 7 6 6 6 6 6 5 6 6 5 5 5 6 5 5 4 4 4 3 3 3 4 3 3 3 2 2 1 0 0
5 10 10 10 11 13 14 14 14 10 12 13 12 14 12 12 11 11 11 11 12 11 10 9 7 7 7 6 5 5 5 6 6 6 5 5 5 5 6 6 6 6 5 5 5 5 4 5 5 5 5 4 3 3 4 4 4 3 3 2 2 1 1
3 8 11 10 12 12 13 13 13 11 12 13 13 13 13 13 12 12 11 11 11 10 9 10 9 8 6 6 6 6 6 5 6 7 7 7 7 7 6 6 6 6 6 5 5 5 5 4 5 5 6 5 4 4 4 4 4 4 3 3 3 3 2
4 4 6 10 12 12 14 13 13 11 12 14 15 15 14 14 13 12 12 12 12 10 11 10 9 9 7 7 7 6 6 6 7 7 7 7 8 6 6 5 6 5 6 6 6 5 5 5 5 5 6 5 4 4 3 4 3 3 3 3 3 3 3
5 3 5 6 5 9 13 13 12 11 13 14 14 15 14 13 13 11 11 12 12 12 12 12 9 8 7 7 6 6 7 7 6 6 6 6 6 6 6 7 6 6 6 6 6 6 4 5 5 6 5 5 4 4 4 4 4 3 3 3 4 3 3
7 5 5 10 11 12 13 14 13 12 13 14 15 14 13 14 12 13 12 12 11 9 9 9 9 8 9 8 7 7 6 6 6 5 6 7 6 7 7 7 7 6 6 7 6 6 5 5 5 5 5 5 5 4 4 4 4 4 4 3 4 3 3
9 6 6 10 9 10 13 14 13 13 13 13 14 13 13 13 13 13 12 12 12 12 11 10 10 8 8 7 7 7 8 8 6 7 6 7 7 7 7 6 6 7 6 4 6 6 5 5 5 6 6 6 5 5 5 5 4 4 3 3 4 3 3
8 5 6 11 11 11 12 14 14 12 12 12 13 13 14 13 12 12 12 12 12 11 10 10 10 9 8 7 7 8 8 8 7 7 6 7 7 7 7 7 6 6 5 6 6 6 6 6 6 6 6 5 5 5 5 5 5 5 4 4 4 4 3
3 2 3 10 10 11 12 13 14 14 15 14 15 15 15 13 12 12 12 11 11 11 11 10 10 9 8 7 6 8 8 7 7 6 6 7 6 7 7 6 6 5 6 7 6 5 6 7 7 7 6 5 5 5 5 5 5 5 5 5 5 5 4
4 2 3 4 6 9 11 12 13 12 13 13 13 14 14 13 12 12 11 11 11 12 11 10 9 9 8 8 7 7 8 8 7 8 6 7 7 8 7 7 6 5 7 7 6 7 6 7 7 7 7 6 6 6 5 5 5 5 5 6 6 6 5
9 1 2 6 3 7 10 12 13 13 14 12 12 13 13 12 12 12 12 11 11 11 11 10 9 9 9 10 9 7 7 9 8 8 8 7 6 8 7 7 7 5 7 7 6 7 6 6 5 6 7 8 7 6 6 6 6 6 6 6 5 6 6
7 1 2 2 3 1 10 12 12 13 13 11 12 12 12 12 13 12 12 12 12 11 11 11 9 9 9 10 10 9 9 9 9 9 9 9 7 8 8 7 7 7 6 7 7 6 6 7 6 6 7 7 7 7 7 7 7 7 7 6 6 6 6
9 5 1 1 3 4 8 4 10 14 13 13 12 13 12 13 12 13 12 12 12 11 11 11 10 10 10 10 10 8 9 9 10 9 9 9 9 8 8 8 8 8 8 8 7 7 7 6 6 6 7 7 7 6 7 7 7 7 6 6 5 5 5
13 8 4 1 5 6 5 10 15 4 14 13 13 13 13 12 13 13 13 13 12 11 11 9 11 11 11 10 9 9 9 9 9 8 8 8 8 8 8 8 7 8 9 8 8 8 7 8 7 6 6 7 7 7 6 6 6 6 6 5 5 5 5
12 9 6 5 5 6 9 8 4 14 10 11 13 15 13 13 12 12 12 12 12 11 12 10 10 11 11 10 10 9 8 8 6 6 7 8 7 7 8 7 7 8 8 8 8 8 8 7 7 6 6 6 6 6 6 6 5 5 5 6 6 5 6
11 12 9 8 6 7 8 8 7 2 7 9 12 13 12 12 12 11 11 10 8 9 7 8 9 10 11 11 10 9 8 8 7 7 6 6 8 7 7 8 7 7 7 8 8 8 8 7 7 7 7 7 6 5 5 4 4 3 7 6 5 6 5
4 4 5 5 5 5 8 9 9 8 1 8 11 1 11 11 10 10 11 10 10 9 8 9 9 9 10 11 10 9 8 7 7 7 6 5 7 7 5 5 7 8 6 5 5 4 5 7 8 7 7 7 7 6 2 2 2 5 3 1 3 3 4
8 7 7 5 6 6 4 7 8 8 9 5 3 5 5 3 3 10 10 10 11 10 9 9 10 10 9 8 6 6 8 7 7 6 4 3 3 3 3 3 2 3 4 5 5 3 3 3 5 5 6 4 4 4 4 3 2 3 3 3 1 2 2
8 7 3 4 2 4 6 7 6 6 6 6 3 3 2 4 6 9 12 10 3 4 7 7 4 3 3 3 2 2 5 6 6 5 4 4 5 5 4 4 4 4 4 5 3 4 5 5 4 4 4 6 6 5 4 3 1 1 2 2 2 0 3
8 7 2 1 2 1 3 2 7 8 8 7 6 7 9 10 8 8 10 9 10 11 9 11 8 5 4 5 5 6 6 6 3 0 2 4 5 4 4 4 4 3 3 5 3 4 5 4 4 3 4 6 7 5 4 2 3 4 2 1 1 1 2
10 9 6 3 3 3 1 2 6 3 8 9 8 7 10 12 9 8 8 8 6 2 2 6 7 5 4 5 4 5 5 6 9 9 11 12 9 5 1 1 1 1 1 2 5 5 5 5 5 3 4 4 5 5 4 2 4 3 3 4 3 2 2
8 9 11 10 9 6 4 6 5 6 9 7 8 8 9 10 9 9 6 5 6 4 4 3 4 5 5 6 4 4 6 6 6 7 7 4 6 6 6 6 3 0 1 2 2 2 3 2 3 4 5 5 6 6 5 2 4 4 5 5 5 2 1
5 6 6 6 9 12 9 9 7 6 7 8 8 8 8 8 10 10 7 4 1 4 5 5 6 6 5 3 4 6 6 7 7 6 6 4 3 2 2 1 3 1 1 2 2 3 4 4 3 4 5 5 4 6 5 2 2 4 5 5 7 3 3
6 5 5 6 7 8 9 10 9 7 8 9 8 6 5 5 5 6 7 5 3 5 6 7 7 5 5 4 5 6 7 7 6 6 5 3 2 1 2 3 3 2 2 3 3 1 2 3 4 4 3 4 4 3 5 2 2 4 5 5 5 3 2
6 6 6 6 6 8 8 8 8 7 8 9 9 6 5 6 7 7 6 5 6 6 6 5 4 5 5 5 5 6 6 7 7 8 7 6 3 3 3 2 2 1 2 5 4 3 3 4 5 6 4 4 5 7 6 3 2 3 4 5 3 2 2
7 8 8 7 7 6 5 5 6 7 8 10 9 8 8 8 8 9 7 6 6 7 6 5 4 4 3 5 5 5 6 6 6 7 8 8 6 5 4 1 1 3 1 1 3 5 4 5 5 7 5 4 4 3 4 5 3 4 6 5 6 4 3
7 6 6 6 6 5 5 6 8 9 8 6 6 8 9 9 10 9 7 7 8 8 6 5 5 6 6 6 6 5 5 4 5 6 5 5 4 3 2 0 1 2 2 1 2 4 5 5 6 6 5 5 4 3 3 4 5 6 8 9 9 8 4
9 8 7 6 6 5 6 6 8 8 9 6 6 6 8 9 10 8 8 9 9 6 5 6 7 6 7 8 8 6 6 6 6 6 5 4 4 4 2 2 3 4 4 2 2 4 5 6 5 6 5 4 6 4 4 6 8 4 7 9 10 9 6
7 8 7 6 5 3 3 5 6 7 7 6 6 7 8 10 10 8 8 9 6 4 4 5 5 7 8 8 8 5 4 5 6 6 6 5 4 5 5 2 2 2 3 4 5 5 6 5 5 7 6 3 3 4 5 4 6 7 6 8 12 12 13
7 7 7 7 6 5 6 6 6 7 7 8 7 7 6 8 9 7 7 6 2 2 2 2 2 4 7 8 8 7 4 4 6 7 5 5 5 6 6 4 4 4 3 4 4 3 4 5 4 4 4 5 3 4 5 5 5 8 8 8 12 11 13
6 7 7 6 6 5 5 6 6 7 7 7 7 6 5 5 7 6 5 1 0 2 3 3 3 3 4 4 4 4 4 4 5 6 6 4 5 6 6 6 7 7 5 6 6 5 4 2 2 3 4 4 5 5 5 5 5 4 6 11 11 11 11
3 4 5 5 5 6 6 6 6 6 6 5 5 5 4 5 5 6 3 2 2 2 3 3 4 5 5 4 3 2 2 1 2 2 2 2 3 5 5 5 5 6 5 6 6 6 5 4 3 4 3 3 4 5 5 4 4 5 5 6 7 7 9
2 3 4 4 5 5 5 5 5 4 4 4 3 4 4 4 3 3 3 4 3 3 3 4 4 3 3 3 2 2 1 2 2 3 4 3 5 5 4 4 6 4 4 4 5 5 5 4 4 4 5 4 5 5 4 6 5 4 4 4 4 5 5
2 1 1 3 4 4 5 4 4 3 3 2 0 2 3 3 3 1 2 3 3 2 2 2 1 1 1 2 3 3 4 5 8 8 6 6 5 5 5 5 4 5 5 4 4 5 5 5 4 6 6 6 5 5 5 5 4 3 3 4 4 4 4
3 3 4 6 4 4 5 4 3 2 2 1 1 2 2 1 1 2 2 2 3 2 2 0 1 2 2 2 2 3 3 5 6 6 6 5 6 6 5 4 4 4 4 2 2 2 6 6 5 4 4 5 5 6 6 4 4 1 1 1 2 3 4
5 6 5 5 5 6 6 5 5 4 4 3 3 3 3 3 2 1 2 2 2 3 3 2 3 4 3 2 2 2 3 4 4 4 6 7 6 6 6 9 9 7 5 4 9 10 7 3 4 6 6 6 3 2 4 5 4 5 4 1 3 6 8
7 6 6 5 7 6 6 5 5 5 4 4 4 4 4 3 3 2 2 2 2 2 3 3 2 3 3 3 3 3 3 4 5 4 4 4 5 6 7 4 7 10 11 9 8 8 9 9 9 7 6 8 4 4 9 8 8 6 3 4 5 5 4
4 5 5 4 7 7 6 5 5 5 4 4 4 4 4 4 3 3 3 3 3 3 3 3 3 3 2 2 3 4 3 2 3 3 4 3 2 4 5 6 6 5 7 8 8 8 8 9 9 9 8 9 9 7 3 3 3 3 3 2 3 2 3
Wind_Direction
181 171 174 171 164 167 167 168 169 167 166 170 173 172 170 170 171 170 173 176 178 179 184 180 182 184 189 190 188 190 182 171 171 173 172 174 174 166 169 177 172 182 181 184 200 196 203 210 196 207 210 203 200 200 199 184 177 198 189 159 135 114 114
200 177 170 174 170 170 170 169 172 160 162 168 172 172 170 172 170 174 177 178 180 180 182 184 180 186 188 189 189 193 182 179 173 172 170 173 174 176 174 176 178 186 189 192 192 206 201 208 195 203 208 204 189 189 187 180 177 187 187 180 166 208 215
246 197 169 177 173 172 172 168 173 162 162 167 170 172 174 173 175 176 175 179 180 181 181 185 185 184 185 184 183 193 184 173 174 171 171 178 182 183 182 177 184 188 198 195 194 202 204 202 201 201 201 196 185 187 186 176 182 182 187 189 194 191 214
216 208 186 171 172 172 173 170 171 163 165 169 173 174 174 174 176 176 175 179 179 179 181 188 186 185 185 183 184 188 188 182 179 178 180 180 184 184 181 188 190 190 193 202 202 200 207 187 194 199 198 190 190 187 187 181 192 187 195 189 213 205 203
206 214 168 134 170 181 175 175 174 165 166 171 173 174 172 172 173 174 178 180 182 183 184 184 185 185 186 184 186 187 190 189 186 181 182 184 184 179 186 193 196 197 199 202 203 201 203 174 185 186 190 191 186 186 195 191 195 204 203 193 205 206 210
194 207 190 169 188 190 181 179 177 171 167 167 173 173 171 170 171 175 177 178 183 186 183 182 186 183 187 189 188 186 188 196 192 185 181 181 181 186 191 196 195 201 200 204 194 199 192 177 176 178 183 193 189 188 198 196 206 205 206 201 212 208 208
190 190 196 188 187 193 181 179 178 176 171 165 168 169 170 172 174 176 175 178 179 180 184 187 188 183 190 186 190 184 189 194 195 194 187 183 185 187 195 194 193 197 200 190 196 189 187 188 181 180 183 185 191 191 198 200 206 211 199 200 216 222 214
180 181 203 191 188 191 182 177 176 174 169 160 162 169 173 174 172 173 177 178 179 179 185 188 189 187 188 188 189 189 191 194 195 194 191 194 189 192 193 196 195 197 190 196 200 186 188 188 189 188 186 189 190 194 197 200 202 200 193 205 215 225 220
148 162 240 193 190 189 184 174 173 171 169 166 165 168 170 171 174 175 177 176 179 179 187 187 189 186 185 187 187 192 193 191 192 187 192 194 194 198 194 197 200 193 198 201 199 197 188 187 189 187 189 194 193 190 194 202 207 200 191 204 205 215 227
175 236 274 268 179 189 184 175 171 167 170 166 168 168 169 171 173 173 174 176 177 184 183 184 187 185 183 188 194 194 192 194 195 190 189 192 194 196 199 201 201 193 198 202 196 198 200 191 189 185 188 194 199 201 205 202 208 205 200 200 203 211 220
178 170 331 279 219 183 185 174 170 172 171 169 170 170 169 168 172 172 176 175 181 185 184 182 183 182 185 188 192 197 199 199 198 198 197 197 194 200 200 202 203 199 203 197 195 197 194 198 187 184 189 197 198 202 205 207 204 203 204 205 203 206 216
153 138 309 335 346 275 195 176 174 172 171 168 169 170 171 171 171 174 174 181 181 183 181 185 180 183 183 188 189 194 198 200 199 200 201 203 202 204 205 205 207 205 208 202 202 194 191 193 196 192 199 201 199 198 201 203 201 199 200 201 200 206 213
161 195 97 357 40 25 12 313 181 173 171 168 171 169 172 173 175 175 179 183 184 183 181 182 180 183 183 189 191 190 197 196 199 199 200 203 206 208 208 206 205 207 209 206 204 200 199 197 193 200 198 205 201 199 195 191 191 191 197 200 200 205 211
165 172 129 97 61 52 71 39 344 254 173 170 171 172 171 177 175 178 181 185 185 184 182 180 181 183 185 188 191 191 196 198 197 198 199 201 206 212 214 212 201 202 204 199 201 203 203 203 199 196 197 201 200 202 196 193 192 195 200 202 203 204 213
175 177 162 108 89 83 74 74 54 353 309 184 169 173 172 175 178 180 184 183 183 182 184 179 180 183 184 187 191 195 194 196 197 196 199 205 204 211 218 219 209 202 199 196 200 201 198 197 191 181 195 200 192 188 190 192 203 199 196 204 212 201 201
178 182 170 139 137 128 114 109 101 99 337 300 185 167 169 171 174 175 173 175 173 173 174 166 183 181 184 188 194 194 191 192 198 200 199 208 213 213 211 217 218 216 208 201 199 197 194 190 183 178 180 186 196 199 196 195 198 200 203 203 206 209 210
39 47 50 82 101 123 122 114 121 120 17 14 340 180 159 162 165 162 160 160 161 160 163 157 165 180 185 192 193 190 186 186 196 196 199 204 211 223 216 217 215 210 210 216 219 213 200 186 186 186 182 182 188 197 150 70 34 1 346 299 275 238 214
17 31 59 70 44 27 58 107 128 129 119 93 28 8 25 43 140 157 162 162 163 160 156 156 166 173 181 189 188 187 185 189 187 188 184 149 132 139 148 146 117 147 175 181 171 163 160 194 204 197 189 158 126 121 124 125 45 6 22 20 354 255 223
76 71 74 146 130 126 128 125 93 74 69 91 77 355 344 99 83 38 15 4 1 129 145 137 104 91 131 125 123 205 206 190 186 181 147 148 146 143 141 133 126 126 132 141 152 140 146 167 165 178 165 146 145 138 132 139 58 67 79 77 96 212 225
93 88 115 39 156 71 21 39 129 129 110 92 73 43 20 18 49 71 73 40 7 16 45 66 63 51 57 74 75 68 41 12 354 65 146 148 155 153 148 157 155 155 139 124 107 112 124 128 133 140 154 155 147 134 111 96 17 355 7 65 107 182 181
110 109 94 139 132 28 2 28 11 49 89 71 56 54 54 37 47 74 82 92 86 65 73 118 141 156 140 124 118 102 92 88 81 60 22 358 352 342 9 78 63 50 46 99 133 139 143 140 127 117 107 101 108 117 105 71 9 357 6 2 356 310 197
107 109 107 111 118 105 77 50 40 50 63 74 84 85 87 94 94 87 93 118 136 162 141 151 169 186 149 141 136 101 103 101 93 103 105 57 346 354 357 342 331 73 72 75 74 89 104 106 125 132 123 120 120 116 106 58 17 9 11 9 358 355 93
43 60 82 89 104 114 110 94 68 59 69 72 83 95 105 126 126 130 131 119 150 102 81 64 34 7 3 37 54 82 95 107 108 99 106 133 185 272 320 283 292 298 102 103 157 159 151 151 147 143 137 131 124 117 109 88 28 23 27 25 6 23 45
59 52 54 82 79 81 86 94 100 87 84 81 75 74 79 81 93 107 114 109 67 59 64 73 64 47 48 49 63 90 109 111 119 119 117 150 188 240 243 251 231 200 161 153 166 148 104 106 92 86 102 112 109 117 111 96 19 21 38 43 36 49 63
63 63 70 54 67 91 103 108 108 102 95 94 82 53 61 90 95 90 81 78 85 86 76 70 84 88 88 81 96 111 119 124 123 126 136 156 172 244 230 206 266 309 138 144 131 127 128 117 106 99 93 109 120 121 114 115 80 48 49 54 51 88 95
79 80 72 68 59 58 75 88 88 85 89 89 89 90 89 91 87 84 78 69 72 75 73 69 75 77 79 81 77 97 109 124 134 143 153 154 164 203 214 202 355 304 355 74 122 128 124 116 109 109 96 80 88 101 122 124 98 50 34 61 60 67 81
74 65 68 65 63 60 69 71 79 79 70 60 84 106 108 108 99 94 90 82 66 55 46 42 57 67 70 75 77 76 92 96 111 125 138 151 161 168 191 160 116 242 280 18 83 100 103 106 111 102 99 93 73 70 51 79 73 42 34 32 37 46 80
79 70 69 74 77 75 72 66 71 76 72 67 63 60 68 76 80 82 83 79 69 50 37 54 52 48 48 56 65 70 85 105 117 123 120 116 130 147 165 165 179 164 160 160 128 97 87 77 68 81 67 72 111 112 95 83 80 79 41 37 38 37 39
86 90 85 81 80 69 81 76 74 72 78 76 63 56 65 77 77 74 76 79 77 72 75 76 89 90 85 77 75 66 68 66 74 72 84 98 105 108 107 97 106 121 138 141 137 133 125 116 122 118 122 111 76 66 74 77 82 70 63 52 58 55 55
93 92 89 87 87 83 79 78 73 72 65 63 62 61 60 76 86 84 83 92 126 92 82 84 81 91 93 94 95 92 78 89 97 100 94 105 109 103 94 79 72 71 71 88 105 117 117 125 129 115 115 113 82 83 75 74 81 75 69 64 63 60 60
107 110 109 104 90 79 78 81 74 66 58 52 62 64 70 78 97 98 93 106 52 74 82 79 72 65 74 82 90 91 98 90 94 97 100 98 101 95 91 83 79 76 68 80 78 68 71 88 125 119 129 127 119 95 69 47 53 60 73 68 63 55 56
75 92 96 95 87 88 89 77 73 74 72 59 61 70 70 72 89 97 100 65 64 57 72 72 57 51 60 82 101 131 142 94 33 74 74 98 105 98 87 93 98 104 98 95 89 92 95 90 123 145 134 126 108 87 78 66 54 43 29 31 43 47 42
140 130 119 107 117 110 92 91 93 93 96 89 70 85 87 87 87 112 116 100 104 104 104 94 76 57 37 38 41 47 72 111 104 51 34 38 65 59 63 69 74 68 87 91 101 95 91 89 91 116 137 126 95 92 75 60 46 28 23 19 37 40 31
177 155 138 112 117 111 107 105 105 98 85 96 38 63 65 72 72 45 62 66 72 87 101 100 115 115 108 63 58 54 58 77 79 72 56 36 37 49 54 47 71 101 85 88 98 105 93 98 96 117 130 128 126 114 92 75 66 34 24 13 24 32 30
154 141 130 118 124 127 125 124 114 112 106 69 66 96 90 84 68 89 90 67 64 70 76 76 71 56 39 35 47 71 86 99 125 115 99 91 72 62 38 3 3 51 85 45 21 102 127 115 95 90 100 120 128 119 102 94 92 148 172 68 25 22 49
105 104 106 118 118 117 111 112 116 106 92 73 73 81 88 90 91 83 77 76 67 66 51 44 75 82 71 51 66 90 90 89 87 109 124 122 113 97 73 61 60 20 31 39 13 14 13 103 137 151 137 111 65 38 136 147 159 135 132 110 31 32 44
110 113 125 126 110 105 110 117 113 104 94 89 79 74 79 73 52 53 42 67 80 89 91 69 80 73 43 52 79 121 118 109 108 105 98 104 112 111 110 94 40 41 39 37 27 12 25 66 99 125 134 123 124 45 41 72 98 103 59 27 26 32 30
104 125 130 129 131 135 127 121 114 114 115 99 91 90 85 76 51 58 41 40 49 67 76 95 117 115 94 74 71 108 113 111 120 109 104 91 87 110 120 116 100 49 28 41 37 28 36 51 67 77 91 113 121 123 72 44 59 119 110 60 56 48 23